AAL1637 KORD-KDCA

Flight info

Callsign AAL1637
Flight time 1h 16m
Altitude 37000
Route MOBLE ADIME OTENS ANEWA JERRI NUSMM BUCKO FRDMM6
Aircraft B38M/M-SDE1FGHILORVWXY/HB1

Departure

Time 2026-04-24 02:25
Airport Chicago O'Hare International Airport (KORD)

Arrival

Time 2026-04-24 03:41
Airport Ronald Reagan Washington National Airport (KDCA)
Time Latitude Longitude Altitude Speed Heading
2026-04-24 02:06 41.97413 -87.89800 677 ft 0 kts 25°
2026-04-24 02:15 41.97411 -87.89801 677 ft 1 kts 25°
2026-04-24 02:15 41.97399 -87.89809 677 ft 3 kts 25°
2026-04-24 02:15 41.97382 -87.89820 677 ft 3 kts 25°
2026-04-24 02:16 41.97363 -87.89831 677 ft 3 kts 25°
2026-04-24 02:16 41.97356 -87.89836 677 ft 0 kts 25°
2026-04-24 02:18 41.97357 -87.89836 677 ft 0 kts 25°
2026-04-24 02:18 41.97359 -87.89831 677 ft 1 kts 53°
2026-04-24 02:19 41.97349 -87.89811 677 ft 4 kts 167°
2026-04-24 02:19 41.97324 -87.89811 677 ft 0 kts 169°
2026-04-24 02:21 41.97314 -87.89807 677 ft 4 kts 163°
2026-04-24 02:21 41.97265 -87.89800 677 ft 9 kts 203°
2026-04-24 02:21 41.97231 -87.89897 677 ft 14 kts 257°
2026-04-24 02:22 41.97219 -87.90047 677 ft 12 kts 270°
2026-04-24 02:22 41.97172 -87.90120 677 ft 13 kts 181°
2026-04-24 02:22 41.97071 -87.90118 677 ft 16 kts 162°
2026-04-24 02:22 41.97047 -87.90004 677 ft 15 kts 90°
2026-04-24 02:23 41.97046 -87.89844 677 ft 19 kts 90°
2026-04-24 02:23 41.97045 -87.89661 677 ft 13 kts 91°
2026-04-24 02:23 41.97024 -87.89597 677 ft 3 kts 164°
2026-04-24 02:23 41.97016 -87.89596 677 ft 4 kts 174°
2026-04-24 02:24 41.96955 -87.89587 677 ft 13 kts 176°
2026-04-24 02:24 41.96918 -87.89634 677 ft 5 kts 269°
2026-04-24 02:24 41.96917 -87.89713 677 ft 15 kts 269°
2026-04-24 02:24 41.96914 -87.90044 677 ft 64 kts 268°
2026-04-24 02:25 41.96910 -87.90897 677 ft 117 kts 270°
2026-04-24 02:25 41.96914 -87.92185 721 ft 153 kts 268°
2026-04-24 02:25 41.96915 -87.93680 1061 ft 164 kts 268°
2026-04-24 02:25 41.96933 -87.95213 1606 ft 163 kts 270°
2026-04-24 02:26 41.97405 -87.96591 2135 ft 166 kts 309°
2026-04-24 02:26 41.98413 -87.97220 2683 ft 158 kts 354°
2026-04-24 02:26 41.99447 -87.96829 3129 ft 157 kts 27°
2026-04-24 02:26 42.00380 -87.95954 3352 ft 172 kts 35°
2026-04-24 02:27 42.01383 -87.94932 3573 ft 193 kts 36°
2026-04-24 02:27 42.02511 -87.93768 3973 ft 212 kts 36°
2026-04-24 02:27 42.03719 -87.92505 4518 ft 228 kts 35°
2026-04-24 02:27 42.05011 -87.91125 5088 ft 245 kts 36°
2026-04-24 02:28 42.06389 -87.89632 5723 ft 261 kts 36°
2026-04-24 02:28 42.07832 -87.88043 6421 ft 274 kts 35°
2026-04-24 02:28 42.09312 -87.86380 7179 ft 285 kts 36°
2026-04-24 02:28 42.10832 -87.84654 7929 ft 285 kts 36°
2026-04-24 02:29 42.12343 -87.82932 8679 ft 284 kts 36°
2026-04-24 02:29 42.13694 -87.80974 9416 ft 289 kts 55°
2026-04-24 02:29 42.14389 -87.78422 10168 ft 295 kts 80°
2026-04-24 02:29 42.14355 -87.75633 10940 ft 300 kts 96°
2026-04-24 02:30 42.13958 -87.72855 11694 ft 305 kts 102°
2026-04-24 02:30 42.13422 -87.70060 12209 ft 319 kts 104°
2026-04-24 02:30 42.12800 -87.67112 12674 ft 335 kts 105°
2026-04-24 02:30 42.12115 -87.63985 13144 ft 350 kts 105°
2026-04-24 02:31 42.11406 -87.60803 13602 ft 365 kts 105°
2026-04-24 02:31 42.10656 -87.57460 14064 ft 379 kts 105°
2026-04-24 02:31 42.09875 -87.53997 14525 ft 393 kts 105°
2026-04-24 02:31 42.09067 -87.50417 14874 ft 409 kts 106°
2026-04-24 02:32 42.08217 -87.46644 14985 ft 431 kts 106°
2026-04-24 02:32 42.07358 -87.42823 14997 ft 417 kts 105°
2026-04-24 02:32 42.06535 -87.39174 14989 ft 394 kts 105°
2026-04-24 02:32 42.05738 -87.35645 14997 ft 396 kts 105°
2026-04-24 02:33 42.04943 -87.32120 15002 ft 402 kts 105°
2026-04-24 02:33 42.04125 -87.28484 15004 ft 411 kts 105°
2026-04-24 02:33 42.03292 -87.24774 15421 ft 417 kts 105°
2026-04-24 02:33 42.02382 -87.21036 15920 ft 424 kts 109°
2026-04-24 02:34 42.01266 -87.17319 16424 ft 431 kts 112°
2026-04-24 02:34 42.00037 -87.13604 16925 ft 438 kts 114°
2026-04-24 02:34 41.98746 -87.09872 17423 ft 444 kts 115°
2026-04-24 02:34 41.97412 -87.06101 17921 ft 449 kts 115°
2026-04-24 02:35 41.96060 -87.02301 18442 ft 452 kts 115°
2026-04-24 02:35 41.94846 -86.98407 19027 ft 453 kts 107°
2026-04-24 02:35 41.94174 -86.94275 19633 ft 452 kts 97°
2026-04-24 02:35 41.93899 -86.90122 20233 ft 452 kts 91°
2026-04-24 02:36 41.93859 -86.85905 20840 ft 451 kts 87°
2026-04-24 02:36 41.93928 -86.83053 21250 ft 450 kts 84°
2026-04-24 02:36 41.94026 -86.78890 21849 ft 450 kts 90°
2026-04-24 02:36 41.93788 -86.74649 22384 ft 453 kts 95°
2026-04-24 02:37 41.93366 -86.70492 22848 ft 456 kts 97°
2026-04-24 02:37 41.92837 -86.66274 23307 ft 459 kts 98°
2026-04-24 02:37 41.92256 -86.62049 23759 ft 461 kts 99°
2026-04-24 02:37 41.91646 -86.57806 24210 ft 463 kts 99°
2026-04-24 02:38 41.91026 -86.53573 24659 ft 464 kts 100°
2026-04-24 02:38 41.90396 -86.49316 25109 ft 465 kts 101°
2026-04-24 02:38 41.89774 -86.45051 25559 ft 466 kts 100°
2026-04-24 02:38 41.89161 -86.40780 26009 ft 466 kts 100°
2026-04-24 02:39 41.88554 -86.36508 26458 ft 466 kts 100°
2026-04-24 02:39 41.87948 -86.32229 26908 ft 466 kts 100°
2026-04-24 02:39 41.87344 -86.27954 27343 ft 466 kts 100°
2026-04-24 02:39 41.86740 -86.23669 27681 ft 468 kts 99°
2026-04-24 02:40 41.86128 -86.19367 27989 ft 471 kts 99°
2026-04-24 02:40 41.85507 -86.15042 28292 ft 474 kts 99°
2026-04-24 02:40 41.84878 -86.10686 28594 ft 476 kts 99°
2026-04-24 02:40 41.84244 -86.06320 28799 ft 481 kts 99°
2026-04-24 02:41 41.83598 -86.01882 28921 ft 487 kts 99°
2026-04-24 02:41 41.82959 -85.97463 29026 ft 493 kts 100°
2026-04-24 02:41 41.82299 -85.92839 29132 ft 499 kts 99°
2026-04-24 02:41 41.81652 -85.88263 29235 ft 504 kts 99°
2026-04-24 02:42 41.80992 -85.83608 29339 ft 508 kts 99°
2026-04-24 02:42 41.80335 -85.78988 29440 ft 513 kts 99°
2026-04-24 02:42 41.79673 -85.74344 29541 ft 515 kts 99°
2026-04-24 02:42 41.78989 -85.69551 29643 ft 517 kts 99°
2026-04-24 02:43 41.78310 -85.64803 29744 ft 517 kts 99°
2026-04-24 02:43 41.77638 -85.60084 29844 ft 516 kts 99°
2026-04-24 02:43 41.76309 -85.50650 30042 ft 514 kts 100°
2026-04-24 02:44 41.75038 -85.41214 30241 ft 513 kts 99°
2026-04-24 02:44 41.73803 -85.31788 30441 ft 513 kts 99°
2026-04-24 02:45 41.72585 -85.22441 30639 ft 513 kts 99°
2026-04-24 02:45 41.71355 -85.13025 30839 ft 513 kts 99°
2026-04-24 02:46 41.70128 -85.03613 31038 ft 513 kts 99°
2026-04-24 02:46 41.68905 -84.94194 31238 ft 514 kts 99°
2026-04-24 02:47 41.67689 -84.84776 31437 ft 514 kts 98°
2026-04-24 02:47 41.66475 -84.75349 31637 ft 514 kts 98°
2026-04-24 02:48 41.65268 -84.65960 31836 ft 514 kts 98°
2026-04-24 02:48 41.63992 -84.56553 32036 ft 515 kts 103°
2026-04-24 02:49 41.62911 -84.51978 32155 ft 515 kts 110°
2026-04-24 02:49 41.61549 -84.47526 32283 ft 516 kts 114°
2026-04-24 02:49 41.60045 -84.43157 32410 ft 518 kts 116°
2026-04-24 02:49 41.58459 -84.38820 32538 ft 520 kts 117°
2026-04-24 02:50 41.57006 -84.34965 32650 ft 521 kts 117°
2026-04-24 02:50 41.55349 -84.30644 32776 ft 523 kts 118°
2026-04-24 02:50 41.53678 -84.26333 32901 ft 524 kts 118°
2026-04-24 02:50 41.51992 -84.22005 33027 ft 525 kts 118°
2026-04-24 02:51 41.50321 -84.17725 33151 ft 526 kts 118°
2026-04-24 02:51 41.48632 -84.13401 33276 ft 527 kts 118°
2026-04-24 02:51 41.46934 -84.09052 33401 ft 528 kts 118°
2026-04-24 02:51 41.45242 -84.04712 33526 ft 528 kts 118°
2026-04-24 02:52 41.43542 -84.00350 33651 ft 529 kts 118°
2026-04-24 02:52 41.41852 -83.96007 33776 ft 529 kts 118°
2026-04-24 02:52 41.40155 -83.91646 33901 ft 529 kts 118°
2026-04-24 02:52 41.38462 -83.87291 34026 ft 529 kts 118°
2026-04-24 02:53 41.36764 -83.82922 34144 ft 529 kts 118°
2026-04-24 02:53 41.35076 -83.78575 34248 ft 530 kts 118°
2026-04-24 02:53 41.31706 -83.69896 34447 ft 530 kts 118°
2026-04-24 02:54 41.28326 -83.61188 34647 ft 530 kts 118°
2026-04-24 02:54 41.24934 -83.52451 34847 ft 530 kts 117°
2026-04-24 02:55 41.21547 -83.43727 35046 ft 530 kts 117°
2026-04-24 02:55 41.18190 -83.35083 35245 ft 530 kts 117°
2026-04-24 02:56 41.14804 -83.26373 35444 ft 530 kts 117°
2026-04-24 02:56 41.11415 -83.17668 35644 ft 530 kts 117°
2026-04-24 02:57 41.08039 -83.08988 35844 ft 530 kts 117°
2026-04-24 02:57 41.04663 -83.00298 36044 ft 529 kts 117°
2026-04-24 02:58 41.01312 -82.91673 36242 ft 529 kts 117°
2026-04-24 02:58 40.97934 -82.83001 36442 ft 529 kts 117°
2026-04-24 02:59 40.94347 -82.74492 36644 ft 528 kts 121°
2026-04-24 02:59 40.90583 -82.66218 36770 ft 529 kts 122°
2026-04-24 03:00 40.86711 -82.57912 36770 ft 532 kts 122°
2026-04-24 03:00 40.82815 -82.49597 36769 ft 532 kts 122°
2026-04-24 03:01 40.78924 -82.41285 36769 ft 531 kts 122°
2026-04-24 03:01 40.75054 -82.32986 36769 ft 530 kts 122°
2026-04-24 03:02 40.71208 -82.24705 36769 ft 529 kts 122°
2026-04-24 03:02 40.67401 -82.16485 36769 ft 528 kts 122°
2026-04-24 03:03 40.63585 -82.08224 36769 ft 528 kts 122°
2026-04-24 03:03 40.59779 -81.99974 36769 ft 528 kts 122°
2026-04-24 03:04 40.55962 -81.91681 36769 ft 528 kts 122°
2026-04-24 03:04 40.52167 -81.83425 36769 ft 528 kts 122°
2026-04-24 03:05 40.48373 -81.75161 36769 ft 528 kts 121°
2026-04-24 03:05 40.44585 -81.66901 36769 ft 528 kts 122°
2026-04-24 03:06 40.40825 -81.58690 36769 ft 528 kts 121°
2026-04-24 03:06 40.37032 -81.50435 36769 ft 528 kts 121°
2026-04-24 03:07 40.33235 -81.42194 36769 ft 528 kts 121°
2026-04-24 03:07 40.29436 -81.33957 36769 ft 528 kts 121°
2026-04-24 03:08 40.23754 -81.21589 36769 ft 528 kts 121°
2026-04-24 03:09 40.19979 -81.13314 36769 ft 528 kts 121°
2026-04-24 03:09 40.16242 -81.05109 36769 ft 528 kts 121°
2026-04-24 03:10 40.12483 -80.96859 36769 ft 528 kts 121°
2026-04-24 03:10 40.08729 -80.88605 36769 ft 528 kts 121°
2026-04-24 03:11 40.04988 -80.80353 36769 ft 528 kts 121°
2026-04-24 03:11 40.01265 -80.72104 36769 ft 528 kts 121°
2026-04-24 03:12 39.97530 -80.63833 36769 ft 528 kts 121°
2026-04-24 03:12 39.93836 -80.55639 36769 ft 528 kts 121°
2026-04-24 03:13 39.90108 -80.47319 36769 ft 528 kts 121°
2026-04-24 03:13 39.86444 -80.39114 36769 ft 528 kts 121°
2026-04-24 03:14 39.82756 -80.30850 36769 ft 528 kts 121°
2026-04-24 03:14 39.79072 -80.22591 36769 ft 528 kts 121°
2026-04-24 03:15 39.75391 -80.14337 36769 ft 528 kts 120°
2026-04-24 03:15 39.71564 -80.06176 36770 ft 527 kts 124°
2026-04-24 03:15 39.69440 -80.02254 36430 ft 533 kts 127°
2026-04-24 03:16 39.67230 -79.98378 35947 ft 533 kts 128°
2026-04-24 03:16 39.64987 -79.94543 35452 ft 531 kts 129°
2026-04-24 03:16 39.62777 -79.90801 34962 ft 528 kts 129°
2026-04-24 03:16 39.60544 -79.87028 34465 ft 525 kts 129°
2026-04-24 03:17 39.58327 -79.83281 33969 ft 522 kts 129°
2026-04-24 03:17 39.56123 -79.79546 33472 ft 520 kts 129°
2026-04-24 03:17 39.53935 -79.75828 32976 ft 518 kts 129°
2026-04-24 03:17 39.51754 -79.72114 32479 ft 517 kts 129°
2026-04-24 03:18 39.49618 -79.68381 31982 ft 516 kts 125°
2026-04-24 03:18 39.47806 -79.64375 31489 ft 516 kts 118°
2026-04-24 03:18 39.46249 -79.60170 30995 ft 518 kts 115°
2026-04-24 03:18 39.44834 -79.55864 30500 ft 518 kts 112°
2026-04-24 03:19 39.43521 -79.51582 30012 ft 518 kts 111°
2026-04-24 03:19 39.42230 -79.47245 29516 ft 516 kts 110°
2026-04-24 03:19 39.40952 -79.42915 29018 ft 513 kts 110°
2026-04-24 03:19 39.39691 -79.38608 28520 ft 510 kts 110°
2026-04-24 03:20 39.38445 -79.34319 28022 ft 507 kts 110°
2026-04-24 03:20 39.37630 -79.31499 27693 ft 505 kts 110°
2026-04-24 03:20 39.36406 -79.27248 27194 ft 502 kts 110°
2026-04-24 03:20 39.35197 -79.23027 26695 ft 499 kts 110°
2026-04-24 03:21 39.34006 -79.18845 26199 ft 496 kts 110°
2026-04-24 03:21 39.32442 -79.13312 25537 ft 491 kts 110°
2026-04-24 03:21 39.31661 -79.10517 25201 ft 489 kts 109°
2026-04-24 03:21 39.30591 -79.06361 24705 ft 485 kts 106°
2026-04-24 03:22 39.29582 -79.02230 24210 ft 481 kts 105°
2026-04-24 03:22 39.28610 -78.98117 23713 ft 477 kts 105°
2026-04-24 03:22 39.27666 -78.94025 23215 ft 473 kts 105°
2026-04-24 03:22 39.26749 -78.89964 22717 ft 469 kts 105°
2026-04-24 03:23 39.25851 -78.85919 22219 ft 467 kts 105°
2026-04-24 03:23 39.24980 -78.81931 21730 ft 469 kts 105°
2026-04-24 03:23 39.24103 -78.77874 21234 ft 470 kts 105°
2026-04-24 03:23 39.23234 -78.73823 20739 ft 469 kts 104°
2026-04-24 03:24 39.22362 -78.69768 20242 ft 467 kts 104°
2026-04-24 03:24 39.21493 -78.65750 19744 ft 463 kts 104°
2026-04-24 03:24 39.20628 -78.61754 19246 ft 459 kts 104°
2026-04-24 03:24 39.19780 -78.57812 18749 ft 455 kts 104°
2026-04-24 03:25 39.19032 -78.53879 18254 ft 450 kts 102°
2026-04-24 03:25 39.18369 -78.49940 17755 ft 445 kts 100°
2026-04-24 03:25 39.17743 -78.46049 17257 ft 441 kts 100°
2026-04-24 03:25 39.17137 -78.42192 16758 ft 437 kts 99°
2026-04-24 03:26 39.16550 -78.38414 16267 ft 434 kts 99°
2026-04-24 03:26 39.15919 -78.34605 15767 ft 432 kts 102°
2026-04-24 03:26 39.15162 -78.30872 15270 ft 429 kts 104°
2026-04-24 03:26 39.14318 -78.27222 14770 ft 420 kts 106°
2026-04-24 03:27 39.13429 -78.23673 14269 ft 413 kts 107°
2026-04-24 03:27 39.12514 -78.20192 13770 ft 408 kts 108°
2026-04-24 03:27 39.11592 -78.16763 13273 ft 403 kts 108°
2026-04-24 03:27 39.10683 -78.13360 12775 ft 399 kts 108°
2026-04-24 03:28 39.09796 -78.09981 12276 ft 395 kts 108°
2026-04-24 03:28 39.08935 -78.06653 11779 ft 390 kts 108°
2026-04-24 03:28 39.08089 -78.03353 11282 ft 386 kts 108°
2026-04-24 03:28 39.07268 -78.00131 10791 ft 382 kts 108°
2026-04-24 03:29 39.06444 -77.96898 10292 ft 377 kts 108°
2026-04-24 03:29 39.05635 -77.93727 10066 ft 368 kts 108°
2026-04-24 03:29 39.04838 -77.90607 10013 ft 364 kts 108°
2026-04-24 03:29 39.04045 -77.87511 10002 ft 363 kts 108°
2026-04-24 03:30 39.03254 -77.84431 10000 ft 363 kts 108°
2026-04-24 03:30 39.02461 -77.81349 10000 ft 364 kts 108°
2026-04-24 03:30 39.01662 -77.78253 10000 ft 364 kts 108°
2026-04-24 03:30 39.00866 -77.75171 10000 ft 364 kts 108°
2026-04-24 03:31 39.00075 -77.72111 10000 ft 364 kts 108°
2026-04-24 03:31 38.99255 -77.69032 10000 ft 365 kts 109°
2026-04-24 03:31 38.98361 -77.65976 10000 ft 365 kts 111°
2026-04-24 03:31 38.97413 -77.62959 10000 ft 363 kts 112°
2026-04-24 03:32 38.96457 -77.60066 9989 ft 338 kts 113°
2026-04-24 03:32 38.95543 -77.57397 9986 ft 315 kts 114°
2026-04-24 03:32 38.94677 -77.54922 9989 ft 301 kts 114°
2026-04-24 03:32 38.93808 -77.52469 9902 ft 298 kts 115°
2026-04-24 03:33 38.92929 -77.50003 9389 ft 303 kts 115°
2026-04-24 03:33 38.92043 -77.47604 8900 ft 299 kts 116°
2026-04-24 03:33 38.91118 -77.45225 8405 ft 295 kts 117°
2026-04-24 03:33 38.90175 -77.42896 7909 ft 291 kts 118°
2026-04-24 03:34 38.89220 -77.40609 7412 ft 287 kts 119°
2026-04-24 03:34 38.88285 -77.38399 6924 ft 284 kts 118°
2026-04-24 03:34 38.87720 -77.35993 6414 ft 281 kts 93°
2026-04-24 03:34 38.88000 -77.33586 6079 ft 267 kts 65°
2026-04-24 03:35 38.89037 -77.31721 6013 ft 251 kts 36°
2026-04-24 03:35 38.90554 -77.30717 6020 ft 243 kts 11°
2026-04-24 03:35 38.92199 -77.30302 6015 ft 246 kts
2026-04-24 03:35 38.93920 -77.30072 6006 ft 248 kts
2026-04-24 03:36 38.95648 -77.29857 5995 ft 251 kts
2026-04-24 03:36 38.97264 -77.28928 5907 ft 264 kts 32°
2026-04-24 03:36 38.98501 -77.27103 5502 ft 275 kts 59°
2026-04-24 03:36 38.99191 -77.24856 5135 ft 275 kts 72°
2026-04-24 03:37 38.99629 -77.22470 4729 ft 273 kts 83°
2026-04-24 03:37 38.99677 -77.20018 4169 ft 274 kts 94°
2026-04-24 03:37 38.99288 -77.17659 3570 ft 269 kts 118°
2026-04-24 03:37 38.98339 -77.15618 3023 ft 264 kts 129°
2026-04-24 03:38 38.98046 -77.15115 2918 ft 261 kts 131°
2026-04-24 03:38 38.97164 -77.13819 2674 ft 252 kts 135°
2026-04-24 03:38 38.95910 -77.12333 2526 ft 235 kts 141°
2026-04-24 03:39 38.94651 -77.11096 2371 ft 220 kts 145°
2026-04-24 03:39 38.93426 -77.10034 2167 ft 205 kts 147°
2026-04-24 03:39 38.92271 -77.09059 1901 ft 192 kts 147°
2026-04-24 03:39 38.91209 -77.08164 1692 ft 175 kts 147°
2026-04-24 03:40 38.90243 -77.07321 1339 ft 161 kts 144°
2026-04-24 03:40 38.89446 -77.06366 915 ft 154 kts 136°
2026-04-24 03:40 38.88701 -77.05423 605 ft 147 kts 137°
2026-04-24 03:40 38.87972 -77.04520 373 ft 144 kts 140°
2026-04-24 03:41 38.87098 -77.03959 204 ft 142 kts 168°
2026-04-24 03:41 38.86091 -77.03869 64 ft 148 kts 176°
2026-04-24 03:41 38.85161 -77.03809 25 ft 115 kts 170°
2026-04-24 03:41 38.84576 -77.03720 24 ft 49 kts 177°
2026-04-24 03:42 38.84394 -77.03765 24 ft 14 kts 252°
2026-04-24 03:42 38.84419 -77.03819 24 ft 6 kts 341°
2026-04-24 03:42 38.84471 -77.03832 24 ft 10 kts 352°
2026-04-24 03:42 38.84559 -77.03846 24 ft 16 kts 354°
2026-04-24 03:43 38.84687 -77.03860 24 ft 21 kts 355°
2026-04-24 03:43 38.84851 -77.03876 24 ft 25 kts 355°
2026-04-24 03:43 38.85036 -77.03895 24 ft 29 kts 355°
2026-04-24 03:43 38.85211 -77.03914 24 ft 22 kts 354°
2026-04-24 03:44 38.85303 -77.04004 24 ft 18 kts 266°
2026-04-24 03:44 38.85291 -77.04099 24 ft 5 kts 219°
2026-04-24 03:44 38.85256 -77.04116 24 ft 1 kts 202°